* Astronomy

Members Login
Username 
 
Password 
    Remember Me  
Post Info TOPIC: Asteroid 2011 BW59


L

Posts: 131433
Date:
Asteroid 2011 BW59
Permalink  
 


Orbital elements:
2011 BW59 Earth MOID = 0.2848 AU
Epoch 2011 Feb. 8.0 TT = JDT 2455600.5 MPC
M 183.02528 (2000.0) P Q
n 0.52248931 Peri. 358.98144 +0.63226096 +0.59610552
a 1.5266909 Node 309.99775 -0.70617835 +0.18066898
e 0.5212930 Incl. 40.24041 -0.31868198 +0.78231511
P 1.89 H 19.7 G 0.15 U 7

MPEC 2011 - D10


__________________
Page 1 of 1  sorted by
 
Quick Reply

Please log in to post quick replies.



Create your own FREE Forum
Report Abuse
Powered by ActiveBoard